Hourly Data Report for July 21, 2011

HALIFAX STANFIELD INT'L A
NOVA SCOTIA

44°52'48.060" N
63°30'00.050" W
145.40 m
8202250
71395
YHZ

Download Data

Hourly Data (July 2011)
Hourly Data Report for July 21, 2011
TIME
LST
Temp Definition
°C
Dew Point Definition
°C
Rel Hum Definition
%
Precip. Amount Definition
mm

Wind Dir Definition
10's deg

Wind Spd Definition
km/h
Visibility Definition
km
Stn Press Definition
kPa
Hmdx Definition


Wind Chill Definition


Weather Definition


00:00 18.8 11.0 60   21 24 24.1 99.03     Cloudy
01:00 18.4 11.5 64   22 19 24.1 98.94     Cloudy
02:00 18.5 12.7 69   23 19 24.1 98.90     Cloudy
03:00 18.8 14.1 74   25 17 24.1 98.92     Cloudy
04:00 17.4 13.9 80   21 19 24.1 98.93     Cloudy
05:00 17.2 14.3 83   23 9 16.1 98.99     Cloudy
06:00 17.1 14.7 86   19 11 24.1 98.98     Cloudy
07:00 18.6 16.0 85   21 19 16.1 98.97     Cloudy
08:00 20.6 16.8 79   22 19 16.1 98.97 26   Mostly Cloudy
09:00 23.4 18.4 74   21 17 16.1 98.94 30   Mostly Cloudy
10:00 25.2 19.1 69   20 15 16.1 98.88 32   Mostly Cloudy
11:00 26.5 19.4 65   20 20 16.1 98.84 34   Mostly Cloudy
12:00 26.5 19.2 64   20 24 16.1 98.79 33   Cloudy
13:00 27.5 20.3 65   20 32 16.1 98.72 35   Cloudy
14:00 25.2 19.4 70   21 32 16.1 98.72 32   Cloudy
15:00 23.8 18.9 74   19 33 16.1 98.71 30   Cloudy
16:00 21.7 17.8 79   19 32 19.3 98.68 28   Cloudy
17:00 20.4 17.3 82   19 28 19.3 98.61 26   Cloudy
18:00 19.9 17.2 84   19 30 19.3 98.58     Rain
19:00 18.8 16.8 88   19 35 12.9 98.52     Cloudy
20:00 18.4 16.9 91   19 32 9.7 98.44     Haze
21:00 18.0 16.7 92   20 43 8.0 98.36     Fog,Haze
22:00 18.1 16.9 93   22 35 3.2 98.46     Thunderstorms, Rain
23:00 19.3 18.3 94   23 32 4.8 98.41     Fog

Notes on Data Quality.

Legend

  • E = Estimated
  • M = Missing
  • NA = Not Available*
  • [empty] = Indicates an unobserved value
Date modified: